Location: Newark
(58.8333°N, 23.5833°E)
Time: 16:59:13
(UTC+00:00)

Tiros 1 despin weight - Pass Details

Date: 18 November 2019
Orbit: 594 x 642 km, 48.2° (Epoch: 12 December)

Event Time Altitude Azimuth Distance (km) Brightness Sun altitude
Rises 15:42:32 0° 254° (WSW) 2,843 ? -12.8°
Reaches altitude 10° 15:45:20 10° 237° (WSW) 1,947 ? -13.2°
Maximum altitude 15:48:29 19° 192° (SSW) 1,453 ? -13.6°
Drops below altitude 10° 15:51:40 10° 147° (SSE) 1,964 ? -14.0°
Enters shadow 15:53:23 - 135° (SE) 2,493 ? -14.2°
Sets 15:54:30 0° 130° (SE) 2,878 - -14.3°
